Wetterdaten: Samstag, 10.08.2013
Datum Zeit Temperatur Luftfeuchte Luftdruck Regen Wind Richtung Richtung Taupunkt Windchill Windben
10.08.2013 00:00 11,1 C 96 % 1025,2 hPa 0,0 l/m 0,0 km/h (0 Bft) S 180 10,5 C 11,0 C 0,0 km/h (0 Bft)
10.08.2013 00:05 11,2 C 96 % 1025,2 hPa 0,0 l/m 0,2 km/h (0 Bft) N-NO 22 10,6 C 11,0 C 0,0 km/h (0 Bft)
10.08.2013 00:10 11,2 C 96 % 1025,2 hPa 0,0 l/m 0,2 km/h (0 Bft) O 90 10,6 C 11,1 C 0,0 km/h (0 Bft)
10.08.2013 00:15 11,2 C 96 % 1025,2 hPa 0,0 l/m 0,0 km/h (0 Bft) NO 45 10,6 C 11,1 C 2,3 km/h (1 Bft)
10.08.2013 00:20 11,4 C 96 % 1025,2 hPa 0,0 l/m 0,6 km/h (0 Bft) O 90 10,8 C 11,2 C 0,0 km/h (0 Bft)
10.08.2013 00:25 11,4 C 96 % 1025,2 hPa 0,0 l/m 1,0 km/h (0 Bft) S-SW 202 10,8 C 11,3 C 0,0 km/h (0 Bft)
10.08.2013 00:30 11,3 C 96 % 1025,2 hPa 0,0 l/m 0,3 km/h (0 Bft) NO 45 10,7 C 11,3 C 0,0 km/h (0 Bft)
10.08.2013 00:35 11,4 C 96 % 1025,2 hPa 0,0 l/m 0,3 km/h (0 Bft) O-NO 67 10,8 C 11,3 C 0,0 km/h (0 Bft)
10.08.2013 00:40 11,4 C 96 % 1025,4 hPa 0,0 l/m 0,3 km/h (0 Bft) W-NW 292 10,8 C 11,3 C 0,0 km/h (0 Bft)
10.08.2013 00:45 11,4 C 96 % 1025,4 hPa 0,0 l/m 0,2 km/h (0 Bft) O-NO 67 10,8 C 11,3 C 0,0 km/h (0 Bft)
10.08.2013 00:50 11,4 C 96 % 1025,4 hPa 0,0 l/m 0,0 km/h (0 Bft) O 90 10,8 C 11,3 C 0,0 km/h (0 Bft)
10.08.2013 00:55 11,5 C 96 % 1025,4 hPa 0,0 l/m 0,6 km/h (0 Bft) S 180 10,9 C 11,3 C 5,1 km/h (1 Bft)
10.08.2013 01:00 11,5 C 96 % 1025,1 hPa 0,0 l/m 1,6 km/h (1 Bft) O 90 10,9 C 11,3 C 2,7 km/h (1 Bft)
10.08.2013 01:05 11,3 C 96 % 1025,1 hPa 0,0 l/m 1,9 km/h (1 Bft) NO 45 10,7 C 11,4 C 0,0 km/h (0 Bft)
10.08.2013 01:10 11,3 C 96 % 1025,1 hPa 0,0 l/m 1,9 km/h (1 Bft) NO 45 10,7 C 11,3 C 5,5 km/h (1 Bft)
10.08.2013 01:15 11,2 C 96 % 1025,1 hPa 0,0 l/m 1,1 km/h (1 Bft) SO 135 10,6 C 11,2 C 7,4 km/h (2 Bft)
10.08.2013 01:20 11,1 C 96 % 1025,1 hPa 0,0 l/m 1,0 km/h (0 Bft) O 90 10,5 C 11,1 C 0,0 km/h (0 Bft)
10.08.2013 01:25 11,0 C 96 % 1025,1 hPa 0,0 l/m 1,3 km/h (1 Bft) S 180 10,4 C 11,0 C 0,0 km/h (0 Bft)
10.08.2013 01:30 10,9 C 96 % 1025,1 hPa 0,0 l/m 1,1 km/h (1 Bft) NO 45 10,3 C 10,9 C 0,0 km/h (0 Bft)
10.08.2013 01:35 10,7 C 96 % 1025,1 hPa 0,0 l/m 0,8 km/h (0 Bft) S-SO 157 10,1 C 10,8 C 0,0 km/h (0 Bft)
10.08.2013 01:40 10,6 C 96 % 1025,0 hPa 0,0 l/m 0,6 km/h (0 Bft) O-NO 67 10,0 C 10,7 C 0,0 km/h (0 Bft)
10.08.2013 01:45 10,6 C 96 % 1025,0 hPa 0,0 l/m 0,2 km/h (0 Bft) SO 135 10,0 C 10,6 C 0,0 km/h (0 Bft)
10.08.2013 01:50 10,6 C 96 % 1025,0 hPa 0,0 l/m 0,0 km/h (0 Bft) W-SW 247 10,0 C 10,6 C 0,0 km/h (0 Bft)
10.08.2013 01:55 10,6 C 96 % 1025,0 hPa 0,0 l/m 0,0 km/h (0 Bft) SW 225 10,0 C 10,6 C 0,0 km/h (0 Bft)
10.08.2013 02:00 10,7 C 96 % 1024,8 hPa 0,0 l/m 0,0 km/h (0 Bft) S-SW 202 10,1 C 10,6 C 0,0 km/h (0 Bft)
10.08.2013 02:05 10,8 C 96 % 1024,8 hPa 0,0 l/m 0,2 km/h (0 Bft) S-SW 202 10,2 C 10,7 C 3,2 km/h (1 Bft)
10.08.2013 02:10 10,7 C 96 % 1024,8 hPa 0,0 l/m 0,3 km/h (0 Bft) O 90 10,1 C 10,8 C 0,0 km/h (0 Bft)
10.08.2013 02:15 10,7 C 96 % 1024,8 hPa 0,0 l/m 0,2 km/h (0 Bft) NO 45 10,1 C 10,6 C 0,0 km/h (0 Bft)
10.08.2013 02:20 10,6 C 96 % 1024,5 hPa 0,0 l/m 0,0 km/h (0 Bft) S-SO 157 10,0 C 10,6 C 0,0 km/h (0 Bft)
10.08.2013 02:25 10,5 C 96 % 1024,5 hPa 0,0 l/m 0,0 km/h (0 Bft) W-SW 247 9,9 C 10,6 C 0,0 km/h (0 Bft)
10.08.2013 02:30 10,6 C 96 % 1024,5 hPa 0,0 l/m 0,2 km/h (0 Bft) S 180 10,0 C 10,5 C 1,6 km/h (1 Bft)
10.08.2013 02:35 10,4 C 96 % 1024,5 hPa 0,0 l/m 0,3 km/h (0 Bft) S 180 9,8 C 10,4 C 0,0 km/h (0 Bft)
10.08.2013 02:40 10,3 C 96 % 1024,5 hPa 0,0 l/m 0,3 km/h (0 Bft) SW 225 9,7 C 10,3 C 0,0 km/h (0 Bft)
10.08.2013 02:45 10,3 C 96 % 1024,5 hPa 0,0 l/m 0,3 km/h (0 Bft) O-SO 112 9,7 C 10,3 C 0,0 km/h (0 Bft)
10.08.2013 02:50 10,2 C 96 % 1024,5 hPa 0,0 l/m 0,3 km/h (0 Bft) NO 45 9,6 C 10,2 C 0,0 km/h (0 Bft)
10.08.2013 02:55 10,2 C 96 % 1024,5 hPa 0,0 l/m 0,3 km/h (0 Bft) S 180 9,6 C 10,1 C 0,0 km/h (0 Bft)
10.08.2013 03:00 10,0 C 96 % 1024,3 hPa 0,0 l/m 0,3 km/h (0 Bft) O-NO 67 9,4 C 10,1 C 0,0 km/h (0 Bft)
10.08.2013 03:05 10,0 C 96 % 1024,3 hPa 0,0 l/m 0,6 km/h (0 Bft) NO 45 9,4 C 10,0 C 2,6 km/h (1 Bft)
10.08.2013 03:10 10,0 C 96 % 1024,3 hPa 0,0 l/m 0,8 km/h (0 Bft) W 270 9,4 C 10,0 C 2,9 km/h (1 Bft)
10.08.2013 03:15 10,0 C 96 % 1024,3 hPa 0,0 l/m 1,0 km/h (0 Bft) O-SO 112 9,4 C 10,1 C 0,0 km/h (0 Bft)
10.08.2013 03:20 10,0 C 96 % 1024,4 hPa 0,0 l/m 1,1 km/h (1 Bft) W-SW 247 9,4 C 10,1 C 3,5 km/h (1 Bft)
10.08.2013 03:25 10,2 C 96 % 1024,4 hPa 0,0 l/m 1,3 km/h (1 Bft) W-SW 247 9,6 C 10,1 C 1,8 km/h (1 Bft)
10.08.2013 03:30 10,2 C 96 % 1024,4 hPa 0,0 l/m 1,1 km/h (1 Bft) W 270 9,6 C 10,1 C 2,4 km/h (1 Bft)
10.08.2013 03:35 10,2 C 96 % 1024,4 hPa 0,0 l/m 0,6 km/h (0 Bft) W 270 9,6 C 10,1 C 0,0 km/h (0 Bft)
10.08.2013 03:40 10,3 C 96 % 1024,6 hPa 0,0 l/m 0,3 km/h (0 Bft) S-SW 202 9,7 C 10,1 C 0,0 km/h (0 Bft)
10.08.2013 03:45 10,3 C 96 % 1024,6 hPa 0,0 l/m 0,3 km/h (0 Bft) N-NO 22 9,7 C 10,2 C 0,0 km/h (0 Bft)
10.08.2013 03:50 10,4 C 96 % 1024,6 hPa 0,0 l/m 0,3 km/h (0 Bft) NO 45 9,8 C 10,2 C 0,0 km/h (0 Bft)
10.08.2013 03:55 10,4 C 96 % 1024,6 hPa 0,0 l/m 1,3 km/h (1 Bft) O 90 9,8 C 10,3 C 2,4 km/h (1 Bft)
10.08.2013 04:00 10,4 C 96 % 1024,8 hPa 0,0 l/m 1,0 km/h (0 Bft) O 90 9,8 C 10,3 C 0,0 km/h (0 Bft)
10.08.2013 04:05 10,3 C 96 % 1024,8 hPa 0,0 l/m 0,2 km/h (0 Bft) S 180 9,7 C 10,3 C 0,0 km/h (0 Bft)
10.08.2013 04:10 10,4 C 96 % 1024,8 hPa 0,0 l/m 0,2 km/h (0 Bft) O-SO 112 9,8 C 10,3 C 0,0 km/h (0 Bft)
10.08.2013 04:15 10,4 C 96 % 1024,8 hPa 0,0 l/m 0,5 km/h (0 Bft) SW 225 9,8 C 10,3 C 2,1 km/h (1 Bft)
10.08.2013 04:20 10,3 C 96 % 1024,6 hPa 0,0 l/m 0,3 km/h (0 Bft) S-SO 157 9,7 C 10,2 C 0,0 km/h (0 Bft)
10.08.2013 04:25 10,2 C 96 % 1024,6 hPa 0,0 l/m 0,3 km/h (0 Bft) N-NO 22 9,6 C 10,1 C 0,0 km/h (0 Bft)
10.08.2013 04:30 10,1 C 96 % 1024,6 hPa 0,0 l/m 0,3 km/h (0 Bft) O 90 9,5 C 10,0 C 1,9 km/h (1 Bft)
10.08.2013 04:35 10,0 C 96 % 1024,6 hPa 0,0 l/m 0,3 km/h (0 Bft) W-SW 247 9,4 C 9,9 C 0,0 km/h (0 Bft)
10.08.2013 04:40 10,0 C 96 % 1024,4 hPa 0,0 l/m 0,5 km/h (0 Bft) S 180 9,4 C 9,9 C 3,7 km/h (1 Bft)
10.08.2013 04:45 10,0 C 96 % 1024,4 hPa 0,0 l/m 0,3 km/h (0 Bft) S-SW 202 9,4 C 9,9 C 0,0 km/h (0 Bft)
10.08.2013 04:50 10,1 C 96 % 1024,4 hPa 0,0 l/m 0,3 km/h (0 Bft) N-NO 22 9,5 C 9,9 C 0,0 km/h (0 Bft)
10.08.2013 04:55 10,1 C 96 % 1024,4 hPa 0,0 l/m 0,3 km/h (0 Bft) W-NW 292 9,5 C 10,0 C 0,0 km/h (0 Bft)
10.08.2013 05:00 10,2 C 96 % 1024,4 hPa 0,0 l/m 0,5 km/h (0 Bft) S 180 9,6 C 10,0 C 2,4 km/h (1 Bft)
10.08.2013 05:05 10,1 C 96 % 1024,4 hPa 0,0 l/m 0,3 km/h (0 Bft) S 180 9,5 C 10,0 C 0,0 km/h (0 Bft)
10.08.2013 05:10 10,1 C 96 % 1024,4 hPa 0,0 l/m 0,6 km/h (0 Bft) O 90 9,5 C 10,0 C 1,8 km/h (1 Bft)
10.08.2013 05:15 10,1 C 96 % 1024,4 hPa 0,0 l/m 0,6 km/h (0 Bft) W-SW 247 9,5 C 10,0 C 0,0 km/h (0 Bft)
10.08.2013 05:20 10,0 C 96 % 1024,4 hPa 0,0 l/m 0,5 km/h (0 Bft) O 90 9,4 C 9,9 C 0,0 km/h (0 Bft)
10.08.2013 05:25 9,9 C 96 % 1024,4 hPa 0,0 l/m 0,5 km/h (0 Bft) S-SO 157 9,3 C 9,8 C 2,1 km/h (1 Bft)
10.08.2013 05:30 9,9 C 96 % 1024,4 hPa 0,0 l/m 0,5 km/h (0 Bft) O-SO 112 9,3 C 9,8 C 0,0 km/h (0 Bft)
10.08.2013 05:35 9,7 C 96 % 1024,4 hPa 0,0 l/m 0,3 km/h (0 Bft) S-SW 202 9,1 C 9,6 C 0,0 km/h (0 Bft)
10.08.2013 05:40 9,6 C 96 % 1024,1 hPa 0,0 l/m 0,0 km/h (0 Bft) W-SW 247 9,0 C 9,6 C 0,0 km/h (0 Bft)
10.08.2013 05:45 9,4 C 96 % 1024,1 hPa 0,0 l/m 0,0 km/h (0 Bft) S-SW 202 8,8 C 9,3 C 0,0 km/h (0 Bft)
10.08.2013 05:50 9,3 C 96 % 1024,1 hPa 0,0 l/m 0,3 km/h (0 Bft) NO 45 8,7 C 9,3 C 2,4 km/h (1 Bft)
10.08.2013 05:55 9,1 C 96 % 1024,1 hPa 0,0 l/m 0,5 km/h (0 Bft) S-SW 202 8,5 C 9,2 C 0,0 km/h (0 Bft)
10.08.2013 06:00 9,2 C 96 % 1024,0 hPa 0,0 l/m 0,2 km/h (0 Bft) S-SW 202 8,6 C 9,2 C 0,0 km/h (0 Bft)
10.08.2013 06:05 9,2 C 96 % 1024,0 hPa 0,0 l/m 0,0 km/h (0 Bft) O-NO 67 8,6 C 9,2 C 0,0 km/h (0 Bft)
10.08.2013 06:10 9,3 C 96 % 1024,0 hPa 0,0 l/m 0,0 km/h (0 Bft) N-NW 337 8,7 C 9,2 C 0,0 km/h (0 Bft)
10.08.2013 06:15 9,4 C 96 % 1024,0 hPa 0,0 l/m 0,0 km/h (0 Bft) N-NO 22 8,8 C 9,1 C 0,0 km/h (0 Bft)
10.08.2013 06:20 9,4 C 96 % 1023,9 hPa 0,0 l/m 0,0 km/h (0 Bft) N-NO 22 8,8 C 9,1 C 0,0 km/h (0 Bft)
10.08.2013 06:25 9,3 C 96 % 1023,9 hPa 0,0 l/m 0,0 km/h (0 Bft) W-SW 247 8,7 C 9,1 C 0,0 km/h (0 Bft)
10.08.2013 06:30 9,2 C 96 % 1023,9 hPa 0,0 l/m 0,0 km/h (0 Bft) W-SW 247 8,6 C 9,1 C 0,0 km/h (0 Bft)
10.08.2013 06:35 9,2 C 96 % 1023,9 hPa 0,0 l/m 0,0 km/h (0 Bft) W-SW 247 8,6 C 9,1 C 0,0 km/h (0 Bft)
10.08.2013 06:40 9,1 C 96 % 1024,2 hPa 0,0 l/m 0,0 km/h (0 Bft) W-SW 247 8,5 C 9,0 C 0,0 km/h (0 Bft)
10.08.2013 06:45 9,2 C 96 % 1024,2 hPa 0,0 l/m 0,0 km/h (0 Bft) W-SW 247 8,6 C 9,1 C 0,0 km/h (0 Bft)
10.08.2013 06:50 9,3 C 96 % 1024,2 hPa 0,0 l/m 0,0 km/h (0 Bft) W-SW 247 8,7 C 9,2 C 0,0 km/h (0 Bft)
10.08.2013 06:55 9,6 C 96 % 1024,2 hPa 0,0 l/m 0,2 km/h (0 Bft) O-SO 112 9,0 C 9,5 C 0,0 km/h (0 Bft)
10.08.2013 07:00 9,8 C 96 % 1024,2 hPa 0,0 l/m 0,2 km/h (0 Bft) O-SO 112 9,2 C 9,9 C 0,0 km/h (0 Bft)
10.08.2013 07:05 10,1 C 96 % 1024,2 hPa 0,0 l/m 0,0 km/h (0 Bft) N-NO 22 9,5 C 10,8 C 0,0 km/h (0 Bft)
10.08.2013 07:10 10,3 C 96 % 1024,2 hPa 0,0 l/m 0,0 km/h (0 Bft) NO 45 9,7 C 10,9 C 0,0 km/h (0 Bft)
10.08.2013 07:15 10,6 C 96 % 1024,2 hPa 0,0 l/m 0,0 km/h (0 Bft) W-SW 247 10,0 C 11,6 C 0,0 km/h (0 Bft)
10.08.2013 07:20 10,8 C 96 % 1024,1 hPa 0,0 l/m 0,0 km/h (0 Bft) NW 315 10,2 C 12,3 C 0,0 km/h (0 Bft)
10.08.2013 07:25 11,1 C 96 % 1024,1 hPa 0,0 l/m 0,0 km/h (0 Bft) NO 45 10,5 C 13,5 C 0,0 km/h (0 Bft)
10.08.2013 07:30 11,2 C 96 % 1024,1 hPa 0,0 l/m 0,2 km/h (0 Bft) N-NW 337 10,6 C 14,3 C 1,6 km/h (1 Bft)
10.08.2013 07:35 11,9 C 96 % 1024,1 hPa 0,0 l/m 0,2 km/h (0 Bft) S 180 11,3 C 15,2 C 0,0 km/h (0 Bft)
10.08.2013 07:40 13,7 C 95 % 1024,0 hPa 0,0 l/m 0,2 km/h (0 Bft) O 90 12,9 C 15,8 C 1,6 km/h (1 Bft)
10.08.2013 07:45 14,8 C 95 % 1024,0 hPa 0,0 l/m 0,2 km/h (0 Bft) O 90 14,0 C 16,3 C 0,0 km/h (0 Bft)
10.08.2013 07:50 15,1 C 94 % 1024,0 hPa 0,0 l/m 0,3 km/h (0 Bft) N-NO 22 14,1 C 16,8 C 0,0 km/h (0 Bft)
10.08.2013 07:55 15,9 C 94 % 1024,0 hPa 0,0 l/m 0,2 km/h (0 Bft) W-NW 292 14,9 C 17,3 C 0,0 km/h (0 Bft)
10.08.2013 08:00 16,4 C 93 % 1024,1 hPa 0,0 l/m 0,2 km/h (0 Bft) N-NW 337 15,3 C 17,7 C 2,3 km/h (1 Bft)
10.08.2013 08:05 16,8 C 92 % 1024,1 hPa 0,0 l/m 0,5 km/h (0 Bft) O 90 15,5 C 18,1 C 0,0 km/h (0 Bft)
10.08.2013 08:10 17,3 C 91 % 1024,1 hPa 0,0 l/m 0,5 km/h (0 Bft) NO 45 15,8 C 18,5 C 0,0 km/h (0 Bft)
10.08.2013 08:15 17,4 C 89 % 1024,1 hPa 0,0 l/m 0,5 km/h (0 Bft) NO 45 15,6 C 18,9 C 2,4 km/h (1 Bft)
10.08.2013 08:20 18,5 C 88 % 1024,2 hPa 0,0 l/m 0,5 km/h (0 Bft) W-NW 292 16,5 C 19,2 C 0,0 km/h (0 Bft)
10.08.2013 08:25 18,2 C 86 % 1024,2 hPa 0,0 l/m 0,3 km/h (0 Bft) O 90 15,8 C 19,7 C 0,0 km/h (0 Bft)
10.08.2013 08:30 18,3 C 86 % 1024,2 hPa 0,0 l/m 0,3 km/h (0 Bft) N-NO 22 15,9 C 20,0 C 0,0 km/h (0 Bft)
10.08.2013 08:35 18,8 C 84 % 1024,2 hPa 0,0 l/m 0,3 km/h (0 Bft) O 90 16,0 C 20,6 C 0,0 km/h (0 Bft)
10.08.2013 08:40 18,9 C 83 % 1024,2 hPa 0,0 l/m 0,2 km/h (0 Bft) O-SO 112 15,9 C 20,9 C 0,0 km/h (0 Bft)
10.08.2013 08:45 19,2 C 82 % 1024,2 hPa 0,0 l/m 0,2 km/h (0 Bft) O-NO 67 16,0 C 21,3 C 0,0 km/h (0 Bft)
10.08.2013 08:50 19,0 C 82 % 1024,2 hPa 0,0 l/m 0,0 km/h (0 Bft) N-NO 22 15,9 C 21,7 C 0,0 km/h (0 Bft)
10.08.2013 08:55 19,3 C 80 % 1024,2 hPa 0,0 l/m 0,8 km/h (0 Bft) O 90 15,8 C 21,9 C 0,0 km/h (0 Bft)
10.08.2013 09:00 19,2 C 80 % 1024,4 hPa 0,0 l/m 1,1 km/h (1 Bft) O 90 15,7 C 21,9 C 0,0 km/h (0 Bft)
10.08.2013 09:05 19,4 C 79 % 1024,4 hPa 0,0 l/m 0,5 km/h (0 Bft) N-NO 22 15,7 C 22,3 C 0,0 km/h (0 Bft)
10.08.2013 09:10 19,2 C 77 % 1024,4 hPa 0,0 l/m 0,2 km/h (0 Bft) O-SO 112 15,1 C 22,7 C 0,0 km/h (0 Bft)
10.08.2013 09:15 19,4 C 78 % 1024,4 hPa 0,0 l/m 0,5 km/h (0 Bft) S 180 15,5 C 22,9 C 3,1 km/h (1 Bft)
10.08.2013 09:20 19,7 C 78 % 1024,8 hPa 0,0 l/m 0,6 km/h (0 Bft) S 180 15,8 C 23,1 C 1,8 km/h (1 Bft)
10.08.2013 09:25 20,1 C 78 % 1024,8 hPa 0,0 l/m 1,4 km/h (1 Bft) O 90 16,1 C 23,2 C 7,6 km/h (2 Bft)
10.08.2013 09:30 20,3 C 78 % 1024,8 hPa 0,0 l/m 1,9 km/h (1 Bft) S-SO 157 16,3 C 23,1 C 2,9 km/h (1 Bft)
10.08.2013 09:35 20,0 C 74 % 1024,8 hPa 0,0 l/m 1,8 km/h (1 Bft) O-NO 67 15,2 C 23,3 C 0,0 km/h (0 Bft)
10.08.2013 09:40 20,5 C 77 % 1024,7 hPa 0,0 l/m 2,1 km/h (1 Bft) S-SW 202 16,3 C 23,4 C 6,4 km/h (2 Bft)
10.08.2013 09:45 20,3 C 75 % 1024,7 hPa 0,0 l/m 2,7 km/h (1 Bft) NO 45 15,7 C 23,1 C 8,0 km/h (2 Bft)
10.08.2013 09:50 20,9 C 76 % 1024,7 hPa 0,0 l/m 3,4 km/h (1 Bft) S-SO 157 16,5 C 23,2 C 5,3 km/h (1 Bft)
10.08.2013 09:55 20,8 C 75 % 1024,7 hPa 0,0 l/m 3,1 km/h (1 Bft) S 180 16,2 C 23,3 C 10,1 km/h (2 Bft)
10.08.2013 10:00 21,3 C 72 % 1024,9 hPa 0,0 l/m 3,5 km/h (1 Bft) S 180 16,0 C 23,2 C 8,7 km/h (2 Bft)
10.08.2013 10:05 20,9 C 71 % 1024,9 hPa 0,0 l/m 4,5 km/h (1 Bft) S 180 15,4 C 22,8 C 6,9 km/h (2 Bft)
10.08.2013 10:10 21,2 C 72 % 1024,9 hPa 0,0 l/m 4,7 km/h (1 Bft) S-SO 157 15,9 C 22,8 C 6,1 km/h (2 Bft)
10.08.2013 10:15 21,2 C 70 % 1024,9 hPa 0,0 l/m 4,3 km/h (1 Bft) SO 135 15,5 C 22,9 C 3,4 km/h (1 Bft)
10.08.2013 10:20 21,7 C 69 % 1024,9 hPa 0,0 l/m 4,7 km/h (1 Bft) S 180 15,8 C 22,9 C 4,8 km/h (1 Bft)
10.08.2013 10:25 21,2 C 67 % 1024,9 hPa 0,0 l/m 3,9 km/h (1 Bft) W-SW 247 14,8 C 23,3 C 2,7 km/h (1 Bft)
10.08.2013 10:30 21,8 C 66 % 1024,9 hPa 0,0 l/m 3,4 km/h (1 Bft) W-SW 247 15,2 C 23,5 C 5,3 km/h (1 Bft)
10.08.2013 10:35 21,3 C 59 % 1024,9 hPa 0,0 l/m 4,3 km/h (1 Bft) S 180 13,0 C 23,5 C 6,8 km/h (2 Bft)
10.08.2013 10:40 21,7 C 58 % 1025,2 hPa 0,0 l/m 4,7 km/h (1 Bft) W-SW 247 13,1 C 23,3 C 9,2 km/h (2 Bft)
10.08.2013 10:45 21,6 C 56 % 1025,2 hPa 0,0 l/m 5,1 km/h (1 Bft) W 270 12,4 C 22,9 C 4,3 km/h (1 Bft)
10.08.2013 10:50 21,5 C 59 % 1025,2 hPa 0,0 l/m 6,0 km/h (2 Bft) W-SW 247 13,1 C 22,8 C 8,7 km/h (2 Bft)
10.08.2013 10:55 21,7 C 58 % 1025,2 hPa 0,0 l/m 5,3 km/h (1 Bft) S-SO 157 13,1 C 22,9 C 11,1 km/h (2 Bft)
10.08.2013 11:00 21,8 C 57 % 1025,8 hPa 0,0 l/m 4,5 km/h (1 Bft) W-SW 247 12,9 C 22,7 C 8,7 km/h (2 Bft)
10.08.2013 11:05 22,8 C 52 % 1025,8 hPa 0,0 l/m 4,5 km/h (1 Bft) S 180 12,4 C 23,1 C 11,4 km/h (2 Bft)
10.08.2013 11:10 22,8 C 56 % 1025,8 hPa 0,0 l/m 4,8 km/h (1 Bft) W-SW 247 13,6 C 23,1 C 4,2 km/h (1 Bft)
10.08.2013 11:15 23,4 C 47 % 1025,8 hPa 0,0 l/m 4,7 km/h (1 Bft) S 180 11,4 C 23,4 C 4,3 km/h (1 Bft)
10.08.2013 11:20 23,7 C 47 % 1025,8 hPa 0,0 l/m 4,0 km/h (1 Bft) W 270 11,7 C 23,5 C 4,3 km/h (1 Bft)
10.08.2013 11:25 24,0 C 47 % 1025,8 hPa 0,0 l/m 3,7 km/h (1 Bft) O-SO 112 12,0 C 23,8 C 5,0 km/h (1 Bft)
10.08.2013 11:30 24,3 C 44 % 1025,8 hPa 0,0 l/m 4,7 km/h (1 Bft) S-SW 202 11,3 C 23,4 C 7,7 km/h (2 Bft)
10.08.2013 11:35 23,9 C 42 % 1025,8 hPa 0,0 l/m 5,5 km/h (1 Bft) SW 225 10,2 C 22,5 C 13,4 km/h (3 Bft)
10.08.2013 11:40 24,0 C 40 % 1025,8 hPa 0,0 l/m 5,1 km/h (1 Bft) W-NW 292 9,6 C 21,9 C 3,5 km/h (1 Bft)
10.08.2013 11:45 24,6 C 44 % 1025,8 hPa 0,0 l/m 4,0 km/h (1 Bft) S-SO 157 11,5 C 21,6 C 5,8 km/h (2 Bft)
10.08.2013 11:50 24,2 C 43 % 1025,8 hPa 0,0 l/m 4,5 km/h (1 Bft) S 180 10,8 C 21,5 C 4,5 km/h (1 Bft)
10.08.2013 11:55 23,8 C 40 % 1025,8 hPa 0,0 l/m 5,8 km/h (2 Bft) S-SO 157 9,4 C 21,7 C 8,5 km/h (2 Bft)
10.08.2013 12:00 23,9 C 39 % 1025,8 hPa 0,0 l/m 4,8 km/h (1 Bft) W-SW 247 9,1 C 22,5 C 8,2 km/h (2 Bft)
10.08.2013 12:05 23,8 C 42 % 1025,8 hPa 0,0 l/m 4,3 km/h (1 Bft) S-SO 157 10,1 C 23,4 C 7,1 km/h (2 Bft)
10.08.2013 12:10 23,9 C 39 % 1025,8 hPa 0,0 l/m 4,7 km/h (1 Bft) S 180 9,1 C 23,7 C 10,8 km/h (2 Bft)
10.08.2013 12:15 23,9 C 40 % 1025,8 hPa 0,0 l/m 5,3 km/h (1 Bft) S 180 9,5 C 23,7 C 5,5 km/h (1 Bft)
10.08.2013 12:20 23,7 C 38 % 1025,7 hPa 0,0 l/m 5,5 km/h (1 Bft) S-SO 157 8,5 C 23,7 C 4,5 km/h (1 Bft)
10.08.2013 12:25 23,7 C 39 % 1025,7 hPa 0,0 l/m 5,0 km/h (1 Bft) W 270 8,9 C 23,7 C 3,9 km/h (1 Bft)
10.08.2013 12:30 23,7 C 39 % 1025,7 hPa 0,0 l/m 5,0 km/h (1 Bft) S-SW 202 8,9 C 23,7 C 7,4 km/h (2 Bft)
10.08.2013 12:35 23,4 C 39 % 1025,7 hPa 0,0 l/m 5,0 km/h (1 Bft) S 180 8,6 C 23,6 C 4,7 km/h (1 Bft)
10.08.2013 12:40 23,6 C 38 % 1025,8 hPa 0,0 l/m 5,1 km/h (1 Bft) S-SW 202 8,4 C 23,7 C 8,0 km/h (2 Bft)
10.08.2013 12:45 23,9 C 40 % 1025,8 hPa 0,0 l/m 5,0 km/h (1 Bft) W-SW 247 9,5 C 24,0 C 6,4 km/h (2 Bft)
10.08.2013 12:50 23,7 C 40 % 1025,8 hPa 0,0 l/m 5,5 km/h (1 Bft) S-SO 157 9,3 C 24,0 C 6,6 km/h (2 Bft)
10.08.2013 12:55 23,8 C 38 % 1025,8 hPa 0,0 l/m 3,4 km/h (1 Bft) W-NW 292 8,6 C 24,8 C 2,3 km/h (1 Bft)
10.08.2013 13:00 23,8 C 40 % 1025,8 hPa 0,0 l/m 2,7 km/h (1 Bft) O-NO 67 9,4 C 25,5 C 3,9 km/h (1 Bft)
10.08.2013 13:05 23,9 C 44 % 1025,8 hPa 0,0 l/m 3,7 km/h (1 Bft) S-SW 202 10,9 C 25,3 C 4,0 km/h (1 Bft)
10.08.2013 13:10 23,5 C 41 % 1025,8 hPa 0,0 l/m 3,5 km/h (1 Bft) S-SW 202 9,5 C 25,6 C 7,4 km/h (2 Bft)
10.08.2013 13:15 23,6 C 39 % 1025,8 hPa 0,0 l/m 3,9 km/h (1 Bft) W-SW 247 8,8 C 25,7 C 5,3 km/h (1 Bft)
10.08.2013 13:20 22,9 C 39 % 1025,6 hPa 0,0 l/m 4,0 km/h (1 Bft) SW 225 8,2 C 25,5 C 4,3 km/h (1 Bft)
10.08.2013 13:25 22,1 C 46 % 1025,6 hPa 0,0 l/m 2,7 km/h (1 Bft) S 180 9,9 C 25,2 C 3,7 km/h (1 Bft)
10.08.2013 13:30 22,8 C 43 % 1025,6 hPa 0,0 l/m 2,3 km/h (1 Bft) W-SW 247 9,6 C 24,2 C 2,6 km/h (1 Bft)
10.08.2013 13:35 23,7 C 43 % 1025,6 hPa 0,0 l/m 3,9 km/h (1 Bft) S 180 10,4 C 24,7 C 6,1 km/h (2 Bft)
10.08.2013 13:40 23,6 C 37 % 1025,6 hPa 0,0 l/m 4,7 km/h (1 Bft) S 180 8,0 C 24,9 C 5,0 km/h (1 Bft)
10.08.2013 13:45 24,2 C 42 % 1025,6 hPa 0,0 l/m 4,2 km/h (1 Bft) NW 315 10,5 C 25,5 C 0,0 km/h (0 Bft)
10.08.2013 13:50 24,5 C 36 % 1025,6 hPa 0,0 l/m 2,7 km/h (1 Bft) S 180 8,4 C 26,2 C 0,0 km/h (0 Bft)
10.08.2013 13:55 23,8 C 41 % 1025,6 hPa 0,0 l/m 1,9 km/h (1 Bft) S 180 9,7 C 26,7 C 4,8 km/h (1 Bft)
10.08.2013 14:00 24,1 C 37 % 1025,6 hPa 0,0 l/m 3,1 km/h (1 Bft) SW 225 8,5 C 26,6 C 6,8 km/h (2 Bft)
10.08.2013 14:05 22,6 C 42 % 1025,6 hPa 0,0 l/m 4,8 km/h (1 Bft) S 180 9,0 C 26,3 C 6,4 km/h (2 Bft)
10.08.2013 14:10 22,5 C 45 % 1025,6 hPa 0,0 l/m 4,5 km/h (1 Bft) S-SW 202 10,0 C 25,0 C 2,6 km/h (1 Bft)
10.08.2013 14:15 23,9 C 40 % 1025,6 hPa 0,0 l/m 4,0 km/h (1 Bft) W-SW 247 9,5 C 24,9 C 3,9 km/h (1 Bft)
10.08.2013 14:20 24,1 C 36 % 1025,4 hPa 0,0 l/m 4,2 km/h (1 Bft) S 180 8,1 C 25,4 C 6,6 km/h (2 Bft)
10.08.2013 14:25 23,6 C 40 % 1025,4 hPa 0,0 l/m 4,0 km/h (1 Bft) S-SW 202 9,2 C 26,0 C 4,0 km/h (1 Bft)
10.08.2013 14:30 22,2 C 43 % 1025,4 hPa 0,0 l/m 4,8 km/h (1 Bft) S 180 9,0 C 25,2 C 4,2 km/h (1 Bft)
10.08.2013 14:35 22,9 C 43 % 1025,4 hPa 0,0 l/m 3,2 km/h (1 Bft) O-SO 112 9,6 C 24,8 C 0,0 km/h (0 Bft)
10.08.2013 14:40 24,0 C 43 % 1025,2 hPa 0,0 l/m 1,8 km/h (1 Bft) W-SW 247 10,6 C 25,6 C 3,5 km/h (1 Bft)
10.08.2013 14:45 24,4 C 38 % 1025,2 hPa 0,0 l/m 2,7 km/h (1 Bft) O-NO 67 9,2 C 26,4 C 5,3 km/h (1 Bft)
10.08.2013 14:50 24,2 C 36 % 1025,2 hPa 0,0 l/m 3,5 km/h (1 Bft) O 90 8,2 C 26,6 C 2,4 km/h (1 Bft)
10.08.2013 14:55 24,5 C 37 % 1025,2 hPa 0,0 l/m 3,9 km/h (1 Bft) S-SW 202 8,8 C 26,4 C 7,1 km/h (2 Bft)
10.08.2013 15:00 24,3 C 34 % 1025,2 hPa 0,0 l/m 4,2 km/h (1 Bft) W-SW 247 7,4 C 26,2 C 1,6 km/h (1 Bft)
10.08.2013 15:05 25,1 C 36 % 1025,2 hPa 0,0 l/m 3,5 km/h (1 Bft) SO 135 9,0 C 26,9 C 0,0 km/h (0 Bft)
10.08.2013 15:10 24,7 C 35 % 1025,2 hPa 0,0 l/m 2,4 km/h (1 Bft) W-SW 247 8,2 C 27,5 C 2,9 km/h (1 Bft)
10.08.2013 15:15 24,7 C 35 % 1025,2 hPa 0,0 l/m 3,2 km/h (1 Bft) W-SW 247 8,2 C 27,6 C 3,1 km/h (1 Bft)
10.08.2013 15:20 24,7 C 34 % 1025,0 hPa 0,0 l/m 3,5 km/h (1 Bft) N 360 7,8 C 27,8 C 5,3 km/h (1 Bft)
10.08.2013 15:25 24,4 C 36 % 1025,0 hPa 0,0 l/m 2,4 km/h (1 Bft) N 360 8,4 C 28,3 C 3,1 km/h (1 Bft)
10.08.2013 15:30 23,8 C 35 % 1025,0 hPa 0,0 l/m 2,7 km/h (1 Bft) W 270 7,4 C 28,3 C 3,7 km/h (1 Bft)
10.08.2013 15:35 24,3 C 33 % 1025,0 hPa 0,0 l/m 2,7 km/h (1 Bft) NO 45 7,0 C 28,2 C 1,8 km/h (1 Bft)
10.08.2013 15:40 23,9 C 34 % 1024,9 hPa 0,0 l/m 2,1 km/h (1 Bft) NO 45 7,1 C 28,5 C 1,9 km/h (1 Bft)
10.08.2013 15:45 24,6 C 34 % 1024,9 hPa 0,0 l/m 1,8 km/h (1 Bft) W 270 7,7 C 28,9 C 3,1 km/h (1 Bft)
10.08.2013 15:50 24,7 C 34 % 1024,9 hPa 0,0 l/m 2,7 km/h (1 Bft) W-SW 247 7,8 C 28,8 C 8,7 km/h (2 Bft)
10.08.2013 15:55 22,3 C 36 % 1024,9 hPa 0,0 l/m 4,3 km/h (1 Bft) W-SW 247 6,5 C 26,6 C 5,5 km/h (1 Bft)
10.08.2013 16:00 22,0 C 38 % 1024,9 hPa 0,0 l/m 4,3 km/h (1 Bft) W 270 7,0 C 25,2 C 2,9 km/h (1 Bft)
10.08.2013 16:05 23,2 C 35 % 1024,9 hPa 0,0 l/m 3,2 km/h (1 Bft) W-NW 292 6,9 C 25,0 C 5,3 km/h (1 Bft)
10.08.2013 16:10 23,4 C 35 % 1024,9 hPa 0,0 l/m 2,4 km/h (1 Bft) W 270 7,1 C 25,9 C 2,1 km/h (1 Bft)
10.08.2013 16:15 23,3 C 37 % 1024,9 hPa 0,0 l/m 1,8 km/h (1 Bft) S 180 7,8 C 26,8 C 0,0 km/h (0 Bft)
10.08.2013 16:20 23,5 C 35 % 1024,7 hPa 0,0 l/m 1,4 km/h (1 Bft) S-SO 157 7,1 C 28,0 C 0,0 km/h (0 Bft)
10.08.2013 16:25 24,1 C 36 % 1024,7 hPa 0,0 l/m 0,8 km/h (0 Bft) S-SO 157 8,1 C 29,2 C 3,7 km/h (1 Bft)
10.08.2013 16:30 24,4 C 35 % 1024,7 hPa 0,0 l/m 2,4 km/h (1 Bft) W-SW 247 7,9 C 29,6 C 5,8 km/h (2 Bft)
10.08.2013 16:35 24,0 C 36 % 1024,7 hPa 0,0 l/m 4,2 km/h (1 Bft) SW 225 8,0 C 28,9 C 1,9 km/h (1 Bft)
10.08.2013 16:40 23,9 C 38 % 1024,6 hPa 0,0 l/m 3,4 km/h (1 Bft) S 180 8,7 C 29,3 C 2,7 km/h (1 Bft)
10.08.2013 16:45 23,6 C 39 % 1024,6 hPa 0,0 l/m 2,3 km/h (1 Bft) W-SW 247 8,8 C 29,6 C 2,9 km/h (1 Bft)
10.08.2013 16:50 22,8 C 39 % 1024,6 hPa 0,0 l/m 2,7 km/h (1 Bft) N 360 8,1 C 29,9 C 6,4 km/h (2 Bft)
10.08.2013 16:55 22,1 C 44 % 1024,6 hPa 0,0 l/m 3,5 km/h (1 Bft) S 180 9,3 C 29,3 C 3,9 km/h (1 Bft)
10.08.2013 17:00 22,2 C 43 % 1024,6 hPa 0,0 l/m 4,2 km/h (1 Bft) W-NW 292 9,0 C 29,0 C 7,2 km/h (2 Bft)
10.08.2013 17:05 22,3 C 42 % 1024,6 hPa 0,0 l/m 4,8 km/h (1 Bft) W-SW 247 8,8 C 28,3 C 4,5 km/h (1 Bft)
10.08.2013 17:10 22,1 C 43 % 1024,6 hPa 0,0 l/m 4,3 km/h (1 Bft) W-SW 247 8,9 C 28,3 C 4,0 km/h (1 Bft)
10.08.2013 17:15 21,9 C 43 % 1024,6 hPa 0,0 l/m 2,6 km/h (1 Bft) N-NW 337 8,7 C 29,2 C 3,2 km/h (1 Bft)
10.08.2013 17:20 21,8 C 45 % 1024,3 hPa 0,0 l/m 3,1 km/h (1 Bft) W 270 9,3 C 29,0 C 5,0 km/h (1 Bft)
10.08.2013 17:25 21,8 C 45 % 1024,3 hPa 0,0 l/m 3,7 km/h (1 Bft) N 360 9,3 C 28,4 C 4,2 km/h (1 Bft)
10.08.2013 17:30 21,8 C 47 % 1024,3 hPa 0,0 l/m 3,4 km/h (1 Bft) S 180 10,0 C 28,5 C 2,6 km/h (1 Bft)
10.08.2013 17:35 21,5 C 46 % 1024,3 hPa 0,0 l/m 2,3 km/h (1 Bft) W 270 9,4 C 29,0 C 0,0 km/h (0 Bft)
10.08.2013 17:40 21,4 C 48 % 1024,4 hPa 0,0 l/m 1,6 km/h (1 Bft) W-SW 247 9,9 C 29,7 C 0,0 km/h (0 Bft)
10.08.2013 17:45 21,4 C 48 % 1024,4 hPa 0,0 l/m 1,0 km/h (0 Bft) SW 225 9,9 C 29,9 C 1,8 km/h (1 Bft)
10.08.2013 17:50 21,3 C 48 % 1024,4 hPa 0,0 l/m 1,4 km/h (1 Bft) SW 225 9,8 C 29,7 C 3,9 km/h (1 Bft)
10.08.2013 17:55 20,9 C 48 % 1024,4 hPa 0,0 l/m 1,9 km/h (1 Bft) S-SO 157 9,5 C 28,8 C 2,6 km/h (1 Bft)
10.08.2013 18:00 20,6 C 50 % 1024,1 hPa 0,0 l/m 2,3 km/h (1 Bft) W-SW 247 9,8 C 28,7 C 2,9 km/h (1 Bft)
10.08.2013 18:05 20,6 C 49 % 1024,1 hPa 0,0 l/m 1,8 km/h (1 Bft) S-SW 202 9,5 C 28,6 C 2,3 km/h (1 Bft)
10.08.2013 18:10 20,7 C 48 % 1024,1 hPa 0,0 l/m 1,1 km/h (1 Bft) N 360 9,3 C 28,9 C 0,0 km/h (0 Bft)
10.08.2013 18:15 20,2 C 50 % 1024,1 hPa 0,0 l/m 0,6 km/h (0 Bft) N-NO 22 9,4 C 29,3 C 2,1 km/h (1 Bft)
10.08.2013 18:20 20,1 C 50 % 1023,9 hPa 0,0 l/m 1,1 km/h (1 Bft) S 180 9,3 C 29,6 C 6,0 km/h (2 Bft)
10.08.2013 18:25 20,0 C 50 % 1023,9 hPa 0,0 l/m 2,4 km/h (1 Bft) SW 225 9,3 C 28,7 C 4,5 km/h (1 Bft)
10.08.2013 18:30 19,9 C 50 % 1023,9 hPa 0,0 l/m 2,7 km/h (1 Bft) W 270 9,2 C 28,2 C 2,6 km/h (1 Bft)
10.08.2013 18:35 20,0 C 50 % 1023,9 hPa 0,0 l/m 1,8 km/h (1 Bft) S 180 9,3 C 28,0 C 2,9 km/h (1 Bft)
10.08.2013 18:40 20,2 C 51 % 1023,2 hPa 0,0 l/m 1,6 km/h (1 Bft) S 180 9,7 C 28,0 C 1,9 km/h (1 Bft)
10.08.2013 18:45 19,6 C 53 % 1023,2 hPa 0,0 l/m 1,9 km/h (1 Bft) S 180 9,8 C 27,7 C 0,0 km/h (0 Bft)
10.08.2013 18:50 19,5 C 53 % 1023,2 hPa 0,0 l/m 1,8 km/h (1 Bft) W-SW 247 9,7 C 28,1 C 3,1 km/h (1 Bft)
10.08.2013 18:55 19,2 C 53 % 1023,2 hPa 0,0 l/m 1,0 km/h (0 Bft) W 270 9,4 C 27,8 C 0,0 km/h (0 Bft)
10.08.2013 19:00 19,0 C 54 % 1023,0 hPa 0,0 l/m 0,8 km/h (0 Bft) W-SW 247 9,5 C 28,1 C 1,8 km/h (1 Bft)
10.08.2013 19:05 18,6 C 56 % 1023,0 hPa 0,0 l/m 1,3 km/h (1 Bft) S 180 9,6 C 27,5 C 1,6 km/h (1 Bft)
10.08.2013 19:10 18,7 C 55 % 1023,0 hPa 0,0 l/m 1,4 km/h (1 Bft) S 180 9,5 C 27,3 C 0,0 km/h (0 Bft)
10.08.2013 19:15 18,7 C 56 % 1023,0 hPa 0,0 l/m 0,5 km/h (0 Bft) S-SO 157 9,7 C 27,2 C 0,0 km/h (0 Bft)
10.08.2013 19:20 18,6 C 56 % 1023,0 hPa 0,0 l/m 0,3 km/h (0 Bft) O 90 9,6 C 27,3 C 2,1 km/h (1 Bft)
10.08.2013 19:25 18,4 C 56 % 1023,0 hPa 0,0 l/m 0,2 km/h (0 Bft) O 90 9,5 C 27,3 C 0,0 km/h (0 Bft)
10.08.2013 19:30 18,4 C 56 % 1023,0 hPa 0,0 l/m 0,2 km/h (0 Bft) SO 135 9,5 C 27,1 C 0,0 km/h (0 Bft)
10.08.2013 19:35 18,2 C 56 % 1023,0 hPa 0,0 l/m 0,2 km/h (0 Bft) O-SO 112 9,3 C 26,6 C 0,0 km/h (0 Bft)
10.08.2013 19:40 18,0 C 56 % 1023,2 hPa 0,0 l/m 0,3 km/h (0 Bft) O-SO 112 9,1 C 26,2 C 0,0 km/h (0 Bft)
10.08.2013 19:45 17,9 C 56 % 1023,2 hPa 0,0 l/m 0,5 km/h (0 Bft) O 90 9,0 C 25,2 C 1,8 km/h (1 Bft)
10.08.2013 19:50 17,8 C 56 % 1023,2 hPa 0,0 l/m 1,1 km/h (1 Bft) O 90 8,9 C 24,4 C 2,4 km/h (1 Bft)
10.08.2013 19:55 17,7 C 58 % 1023,2 hPa 0,0 l/m 2,1 km/h (1 Bft) NO 45 9,3 C 23,0 C 2,9 km/h (1 Bft)
10.08.2013 20:00 17,3 C 60 % 1023,2 hPa 0,0 l/m 2,4 km/h (1 Bft) NO 45 9,5 C 21,4 C 3,5 km/h (1 Bft)
10.08.2013 20:05 16,9 C 61 % 1023,2 hPa 0,0 l/m 3,1 km/h (1 Bft) O 90 9,3 C 19,3 C 3,7 km/h (1 Bft)
10.08.2013 20:10 16,7 C 63 % 1023,2 hPa 0,0 l/m 3,4 km/h (1 Bft) O 90 9,6 C 18,7 C 4,5 km/h (1 Bft)
10.08.2013 20:15 16,5 C 65 % 1023,2 hPa 0,0 l/m 3,7 km/h (1 Bft) O 90 9,9 C 18,0 C 3,4 km/h (1 Bft)
10.08.2013 20:20 16,2 C 66 % 1023,1 hPa 0,0 l/m 3,5 km/h (1 Bft) NO 45 9,8 C 17,4 C 4,2 km/h (1 Bft)
10.08.2013 20:25 16,0 C 66 % 1023,1 hPa 0,0 l/m 3,4 km/h (1 Bft) O 90 9,7 C 16,5 C 4,3 km/h (1 Bft)
10.08.2013 20:30 15,7 C 66 % 1023,1 hPa 0,0 l/m 3,2 km/h (1 Bft) O-NO 67 9,4 C 16,0 C 2,9 km/h (1 Bft)
10.08.2013 20:35 15,4 C 68 % 1023,1 hPa 0,0 l/m 3,4 km/h (1 Bft) O 90 9,5 C 15,5 C 4,3 km/h (1 Bft)
10.08.2013 20:40 15,0 C 69 % 1023,1 hPa 0,0 l/m 4,0 km/h (1 Bft) O 90 9,4 C 15,1 C 4,3 km/h (1 Bft)
10.08.2013 20:45 14,8 C 69 % 1023,1 hPa 0,0 l/m 3,2 km/h (1 Bft) O 90 9,2 C 14,8 C 1,9 km/h (1 Bft)
10.08.2013 20:50 14,9 C 69 % 1023,1 hPa 0,0 l/m 2,3 km/h (1 Bft) O 90 9,3 C 14,8 C 3,5 km/h (1 Bft)
10.08.2013 20:55 14,4 C 74 % 1023,1 hPa 0,0 l/m 2,6 km/h (1 Bft) O 90 9,8 C 14,7 C 3,2 km/h (1 Bft)
10.08.2013 21:00 14,6 C 73 % 1023,3 hPa 0,0 l/m 2,6 km/h (1 Bft) O-SO 112 9,8 C 14,6 C 1,8 km/h (1 Bft)
10.08.2013 21:05 14,7 C 73 % 1023,3 hPa 0,0 l/m 1,1 km/h (1 Bft) S-SW 202 9,9 C 14,8 C 0,0 km/h (0 Bft)
10.08.2013 21:10 14,8 C 73 % 1023,3 hPa 0,0 l/m 0,2 km/h (0 Bft) W-SW 247 10,0 C 14,8 C 0,0 km/h (0 Bft)
10.08.2013 21:15 14,8 C 74 % 1023,3 hPa 0,0 l/m 0,2 km/h (0 Bft) O-NO 67 10,2 C 14,8 C 1,9 km/h (1 Bft)
10.08.2013 21:20 14,8 C 75 % 1023,3 hPa 0,0 l/m 0,5 km/h (0 Bft) O 90 10,4 C 14,7 C 2,1 km/h (1 Bft)
10.08.2013 21:25 14,6 C 75 % 1023,3 hPa 0,0 l/m 1,4 km/h (1 Bft) O 90 10,2 C 14,6 C 2,7 km/h (1 Bft)
10.08.2013 21:30 14,6 C 75 % 1023,3 hPa 0,0 l/m 2,4 km/h (1 Bft) N-NO 22 10,2 C 14,6 C 5,1 km/h (1 Bft)
10.08.2013 21:35 14,4 C 75 % 1023,3 hPa 0,0 l/m 3,2 km/h (1 Bft) O-NO 67 10,0 C 14,5 C 2,6 km/h (1 Bft)
10.08.2013 21:40 14,3 C 75 % 1023,5 hPa 0,0 l/m 2,9 km/h (1 Bft) O-NO 67 9,9 C 14,4 C 3,7 km/h (1 Bft)
10.08.2013 21:45 14,3 C 76 % 1023,5 hPa 0,0 l/m 3,2 km/h (1 Bft) S 180 10,1 C 14,3 C 4,2 km/h (1 Bft)
10.08.2013 21:50 14,1 C 75 % 1023,5 hPa 0,0 l/m 3,7 km/h (1 Bft) NO 45 9,7 C 14,1 C 4,2 km/h (1 Bft)
10.08.2013 21:55 13,8 C 75 % 1023,5 hPa 0,0 l/m 2,6 km/h (1 Bft) O 90 9,4 C 13,9 C 3,1 km/h (1 Bft)
10.08.2013 22:00 13,6 C 75 % 1023,4 hPa 0,0 l/m 1,6 km/h (1 Bft) O 90 9,3 C 13,8 C 3,1 km/h (1 Bft)
10.08.2013 22:05 13,6 C 76 % 1023,4 hPa 0,0 l/m 1,4 km/h (1 Bft) NO 45 9,4 C 13,6 C 2,7 km/h (1 Bft)
10.08.2013 22:10 13,6 C 76 % 1023,4 hPa 0,0 l/m 1,8 km/h (1 Bft) NO 45 9,4 C 13,6 C 2,4 km/h (1 Bft)
10.08.2013 22:15 13,4 C 76 % 1023,4 hPa 0,0 l/m 1,1 km/h (1 Bft) NO 45 9,3 C 13,4 C 2,3 km/h (1 Bft)
10.08.2013 22:20 13,3 C 76 % 1023,4 hPa 0,0 l/m 0,8 km/h (0 Bft) NO 45 9,2 C 13,3 C 0,0 km/h (0 Bft)
10.08.2013 22:25 13,0 C 76 % 1023,4 hPa 0,0 l/m 0,3 km/h (0 Bft) O-SO 112 8,9 C 13,0 C 0,0 km/h (0 Bft)
10.08.2013 22:30 12,9 C 77 % 1023,4 hPa 0,0 l/m 0,3 km/h (0 Bft) NO 45 9,0 C 12,8 C 0,0 km/h (0 Bft)
10.08.2013 22:35 12,7 C 78 % 1023,4 hPa 0,0 l/m 0,3 km/h (0 Bft) O 90 9,0 C 12,6 C 0,0 km/h (0 Bft)
10.08.2013 22:40 12,6 C 78 % 1023,3 hPa 0,0 l/m 0,2 km/h (0 Bft) O 90 8,9 C 12,4 C 0,0 km/h (0 Bft)
10.08.2013 22:45 12,7 C 78 % 1023,3 hPa 0,0 l/m 0,8 km/h (0 Bft) NO 45 9,0 C 12,4 C 2,1 km/h (1 Bft)
10.08.2013 22:50 12,6 C 79 % 1023,3 hPa 0,0 l/m 1,1 km/h (1 Bft) O-NO 67 9,1 C 12,4 C 1,9 km/h (1 Bft)
10.08.2013 22:55 12,5 C 79 % 1023,3 hPa 0,0 l/m 0,5 km/h (0 Bft) O 90 9,0 C 12,3 C 0,0 km/h (0 Bft)
10.08.2013 23:00 12,4 C 79 % 1023,3 hPa 0,0 l/m 0,3 km/h (0 Bft) NO 45 8,9 C 12,2 C 1,9 km/h (1 Bft)
10.08.2013 23:05 12,7 C 79 % 1023,3 hPa 0,0 l/m 1,1 km/h (1 Bft) NO 45 9,2 C 12,3 C 2,6 km/h (1 Bft)
10.08.2013 23:10 12,9 C 79 % 1023,3 hPa 0,0 l/m 1,6 km/h (1 Bft) O-NO 67 9,3 C 12,4 C 1,6 km/h (1 Bft)
10.08.2013 23:15 12,9 C 79 % 1023,3 hPa 0,0 l/m 0,8 km/h (0 Bft) O-SO 112 9,3 C 12,7 C 0,0 km/h (0 Bft)
10.08.2013 23:20 13,1 C 79 % 1023,4 hPa 0,0 l/m 0,2 km/h (0 Bft) O-SO 112 9,5 C 12,9 C 0,0 km/h (0 Bft)
10.08.2013 23:25 13,3 C 79 % 1023,4 hPa 0,0 l/m 0,0 km/h (0 Bft) O-SO 112 9,7 C 13,1 C 0,0 km/h (0 Bft)
10.08.2013 23:30 13,4 C 79 % 1023,4 hPa 0,0 l/m 0,2 km/h (0 Bft) O-NO 67 9,8 C 13,3 C 0,0 km/h (0 Bft)
10.08.2013 23:35 13,5 C 79 % 1023,4 hPa 0,0 l/m 0,0 km/h (0 Bft) O-NO 67 9,9 C 13,4 C 0,0 km/h (0 Bft)
10.08.2013 23:40 13,5 C 79 % 1023,2 hPa 0,0 l/m 0,0 km/h (0 Bft) O-SO 112 9,9 C 13,4 C 0,0 km/h (0 Bft)
10.08.2013 23:45 13,6 C 79 % 1023,2 hPa 0,0 l/m 0,2 km/h (0 Bft) N 360 10,0 C 13,5 C 0,0 km/h (0 Bft)
10.08.2013 23:50 13,5 C 79 % 1023,2 hPa 0,0 l/m 0,3 km/h (0 Bft) NO 45 9,9 C 13,5 C 1,6 km/h (1 Bft)
10.08.2013 23:55 13,5 C 79 % 1023,2 hPa 0,0 l/m 0,5 km/h (0 Bft) O-SO 112 9,9 C 13,5 C 0,0 km/h (0 Bft)
_ Min-Zeit 06:40 15:35 19:35 - 23:40 - - 15:55 06:40 23:55
Minimum _ 9,1 C 33 % 1023,0 hPa - 0,0 km/h (0 Bft) - - 6,5 C 9,0 C 0,0 km/h (0 Bft)
_ Max-Zeit 15:05 07:35 13:15 23:55 10:50 - - 09:50 17:45 11:35
Maximum _ 25,1 C 96 % 1025,8 hPa 0,0 l/m 6,0 km/h
W-SW (2 Bft)
- - 16,5 C 29,9 C 13,4 km/h
SW (3 Bft)
Durchschnitt _ 16,8 C 70 % 1024,5 hPa #0,0 l/m 1,8 km/h (1 Bft) S - 10,3 C 18,6 C 2,4 km/h (1 Bft)